Temp
7 7 7 7 7 7 7 7 7 7 7 7 7 7 7 7 7 7 7 7 7 7 8 8 8 8 8 8 8 8 7 8 9 9 10 9 9 10 10 10 10 10 11 11 11 12 13 13 13 13 14 15 15 15 15 15 17 17 18 19 20 21 21 22 23 23 23 24 23 22 23 24 22 20 20 20 20 19 19 19 19 19 19 21 21 20 19 18
6 6 6 7 7 7 7 7 7 7 7 7 7 7 7 7 7 7 7 7 7 7 7 7 8 8 8 8 7 7 7 8 9 9 9 9 9 10 10 10 10 10 11 11 11 11 12 13 12 12 14 15 14 15 15 15 16 17 19 19 20 21 21 22 22 22 23 23 23 21 22 23 21 20 21 20 20 20 20 19 20 20 19 19 18 17 18 17
6 6 6 6 6 7 7 7 7 7 7 7 7 7 7 7 7 7 7 7 7 7 7 7 7 8 7 7 7 7 8 8 9 9 9 9 9 9 10 10 10 11 11 11 11 11 11 11 10 11 13 14 14 14 15 15 15 17 18 18 20 21 20 20 21 21 21 22 23 21 20 21 18 18 20 20 19 19 17 16 18 18 16 15 14 14 14 15
6 6 6 6 6 6 6 7 7 7 7 7 7 7 7 7 7 7 7 7 7 7 7 7 7 7 7 7 7 7 8 9 10 8 8 9 9 9 10 10 11 11 11 11 11 10 10 10 10 11 13 14 13 13 15 15 15 17 17 18 19 19 19 20 20 20 20 21 22 21 20 19 17 17 19 20 20 17 14 12 12 12 11 12 12 12 12 12
6 6 6 6 6 6 6 7 7 7 7 7 7 7 7 7 7 7 7 7 7 7 7 7 7 7 7 7 7 7 8 10 10 8 8 9 9 10 10 10 11 11 11 11 11 10 10 11 11 11 13 14 12 13 15 14 15 16 17 18 18 18 19 19 19 18 18 20 21 21 20 18 16 16 16 18 19 15 11 9 9 9 9 9 11 12 11 11
6 6 6 6 6 6 6 6 6 7 7 7 7 7 7 7 7 7 7 7 7 7 7 7 7 7 7 7 7 7 9 11 9 8 9 9 9 10 10 10 11 11 10 10 10 11 11 11 12 11 12 13 13 14 15 13 13 15 16 17 16 17 17 18 18 17 17 18 20 20 19 17 15 14 12 13 13 10 9 8 8 8 8 8 9 11 10 10
6 6 6 6 6 6 6 6 6 7 7 7 7 7 7 7 7 7 7 7 7 7 7 7 7 7 7 7 8 8 9 10 8 8 9 9 9 10 10 10 10 10 10 10 11 11 11 11 12 11 11 12 12 13 13 12 12 14 16 16 16 16 16 17 17 17 17 17 18 18 17 16 16 14 11 9 8 9 9 8 8 7 7 7 8 9 9 9
6 6 6 6 6 6 6 6 6 6 7 7 7 7 7 7 7 7 7 7 7 7 7 7 7 7 7 7 8 9 9 9 8 8 9 9 9 10 10 10 10 10 10 10 10 11 11 11 11 10 12 13 12 12 12 12 13 13 15 15 15 15 15 16 16 16 17 17 17 17 15 14 14 12 10 8 8 8 8 7 7 7 6 6 6 7 8 7
6 6 6 6 6 6 6 6 6 6 6 7 7 7 7 7 7 7 7 7 7 7 7 7 7 7 7 7 8 9 9 8 8 8 8 9 9 9 10 10 10 10 10 10 10 11 11 11 10 10 12 12 11 12 12 12 14 13 13 14 14 14 15 15 16 16 17 17 17 15 14 13 13 12 9 8 7 7 7 7 7 6 6 5 5 5 6 6
6 6 6 6 6 6 6 6 6 6 6 7 7 7 7 7 7 7 7 7 7 7 7 6 7 6 7 7 8 9 8 7 8 8 8 9 9 9 9 10 10 10 10 10 10 11 11 11 10 10 11 11 11 12 11 12 13 12 12 13 13 14 14 15 15 16 16 16 16 15 13 13 13 13 10 7 7 7 7 6 6 6 5 5 4 5 5 5
6 6 6 6 6 6 6 6 6 6 6 7 7 7 7 7 7 7 7 7 7 7 7 6 6 6 6 7 8 9 8 8 8 8 9 9 9 9 9 10 10 10 10 10 10 10 10 10 10 10 11 11 11 11 11 12 12 11 12 13 13 14 14 15 15 15 16 16 16 15 14 13 12 11 9 7 7 7 6 6 5 5 5 4 4 4 4 3
6 6 6 6 6 6 6 6 6 6 6 6 7 7 7 7 7 7 7 7 7 7 7 6 6 6 6 7 8 8 8 8 8 8 9 9 9 9 9 10 10 9 10 10 10 9 9 9 10 10 11 11 11 11 11 11 11 12 12 12 13 14 14 15 15 16 16 15 16 16 15 13 10 9 8 7 7 7 6 5 5 4 4 4 3 4 3 3
6 6 6 6 6 6 6 6 6 6 6 6 7 6 7 7 7 7 7 7 7 7 7 6 6 6 6 8 8 8 8 8 8 8 9 9 9 9 9 9 9 9 9 10 10 9 9 9 10 10 11 10 11 11 12 12 12 12 12 12 13 13 14 15 15 16 15 15 16 16 16 13 8 7 7 7 7 7 6 6 5 4 3 3 3 3 3 3
6 6 6 6 6 6 6 6 6 6 6 6 6 6 7 7 7 7 7 7 7 7 7 6 6 6 7 8 8 8 8 8 8 8 8 9 9 9 9 9 9 9 9 9 9 9 9 9 9 10 10 10 11 11 11 11 12 12 12 12 13 13 15 16 16 15 15 14 15 15 16 13 7 6 6 7 7 7 6 6 5 4 3 3 3 3 3 2
6 6 6 5 5 5 5 6 6 6 6 6 6 6 7 7 7 7 7 7 7 6 6 6 6 6 7 7 8 8 8 8 8 8 8 8 9 9 9 9 9 9 9 9 9 9 9 9 10 10 10 10 10 10 11 12 12 12 12 12 13 13 15 16 16 16 15 13 12 14 15 11 7 6 6 6 7 6 6 6 5 4 3 3 2 2 2 2
6 6 6 5 5 5 5 5 6 6 6 6 6 6 6 7 7 7 7 7 7 6 6 6 6 6 7 8 8 8 8 8 8 8 8 8 8 9 9 9 9 9 9 9 9 9 9 9 10 9 10 10 10 11 11 11 11 12 12 12 13 13 14 15 15 16 16 13 11 12 13 9 6 6 6 6 6 6 6 5 5 4 4 3 3 2 2 2
5 5 5 5 5 5 5 5 5 6 6 6 6 6 6 6 6 7 6 6 6 6 6 6 5 5 7 8 8 8 8 8 8 8 8 8 8 8 9 9 9 8 9 9 9 9 9 9 9 9 9 10 10 11 11 10 11 12 12 12 13 13 14 14 14 13 14 13 10 10 9 7 6 6 5 6 6 6 6 5 5 4 4 3 3 2 2 2
5 5 5 5 5 5 5 5 5 6 6 6 6 7 6 6 6 6 6 6 6 6 6 6 5 6 8 8 8 8 8 7 8 8 8 8 8 8 8 9 9 9 9 9 9 9 9 9 9 9 9 9 9 10 10 10 11 12 12 12 12 12 13 14 13 12 11 11 9 8 7 5 5 5 5 5 5 5 5 5 5 4 4 4 3 3 2 1
5 5 5 5 5 5 5 5 5 6 6 6 7 6 6 6 6 6 6 6 6 7 7 7 6 8 8 8 8 7 7 7 7 7 8 7 8 8 8 8 9 9 8 8 9 9 9 9 8 9 9 9 9 10 11 11 10 11 12 12 12 12 13 13 12 11 11 9 7 7 6 5 4 5 5 5 5 5 5 5 5 4 4 3 3 2 2 1
5 5 5 5 5 5 5 5 5 5 6 6 7 7 7 7 7 7 6 6 7 7 7 8 7 7 8 8 7 7 7 7 7 7 7 6 7 8 8 8 8 8 8 8 8 8 8 8 9 10 10 10 9 10 10 10 9 10 10 11 11 12 12 11 10 10 11 9 6 5 5 4 3 3 4 5 5 5 5 5 4 4 4 3 3 2 1 1
5 5 5 5 5 5 5 5 5 5 6 6 7 7 7 7 7 7 7 7 7 5 5 6 6 6 7 7 6 6 7 7 7 7 6 6 7 7 8 8 7 8 8 8 7 7 7 8 9 10 9 9 9 9 9 9 9 9 9 10 10 11 11 10 10 10 11 9 5 4 4 3 3 2 3 4 4 4 5 5 4 4 4 3 3 2 1 1
5 5 5 5 5 5 5 5 5 6 6 6 7 7 7 6 6 6 6 7 6 4 3 4 4 5 6 6 6 6 6 7 7 7 6 6 7 7 8 7 7 8 7 7 7 7 7 8 9 9 8 8 8 9 8 8 9 9 9 10 10 11 11 9 9 9 9 9 6 5 4 3 3 3 3 3 3 3 4 4 4 4 4 3 3 2 1 1
5 5 5 5 5 5 5 5 5 6 6 6 6 6 6 6 6 6 6 6 6 5 4 4 5 6 6 6 6 5 6 6 7 7 6 6 7 7 7 7 7 7 6 6 7 7 7 8 9 8 8 8 8 8 8 8 9 9 9 9 10 11 10 10 9 7 8 8 6 5 5 3 3 3 3 3 3 2 3 3 4 4 4 4 3 3 2 1
5 5 5 5 5 5 5 5 6 6 6 6 6 6 6 6 5 5 6 6 6 6 5 5 6 6 7 7 6 6 7 6 6 7 6 6 6 6 7 8 7 6 6 7 7 7 8 8 8 8 8 8 8 8 8 8 9 9 9 9 10 10 10 10 8 6 7 7 7 7 6 5 4 3 3 3 3 3 3 3 3 3 4 3 3 3 2 2
5 4 5 5 4 5 5 6 6 6 6 6 6 6 5 6 5 5 6 6 7 7 6 5 6 6 7 6 6 6 6 6 6 6 6 6 6 6 6 7 6 6 6 7 7 6 7 8 7 7 7 7 7 8 8 9 9 9 9 9 10 10 9 8 8 7 7 6 7 9 10 9 5 4 4 3 3 3 3 3 3 3 3 3 3 3 3 2
4 4 4 5 5 5 6 6 6 6 6 6 6 5 5 5 5 5 5 7 9 9 7 7 7 7 7 6 6 6 6 6 6 6 6 6 7 7 6 6 6 6 6 7 6 6 7 8 7 7 7 7 7 8 8 9 9 9 10 10 10 10 9 8 8 8 8 8 8 9 11 11 6 4 4 3 2 3 2 2 2 3 2 2 2 3 2 1
4 4 5 5 5 5 6 7 6 6 6 6 6 5 5 5 5 5 6 9 10 9 8 7 7 7 7 7 7 7 6 6 6 5 5 6 6 6 6 6 5 6 6 6 6 6 6 6 7 6 7 7 7 8 8 8 8 9 10 10 10 10 9 9 9 8 9 10 9 8 10 12 10 7 4 3 3 3 2 2 3 2 3 3 3 2 2 1
4 5 5 5 5 6 6 7 6 6 6 6 5 5 5 5 5 5 8 11 10 8 9 8 7 7 7 7 6 6 6 6 6 5 5 5 6 6 6 6 6 6 6 6 6 6 5 5 6 6 7 7 8 8 8 8 8 9 10 9 10 11 10 9 9 9 9 9 9 8 9 12 12 7 3 3 3 3 3 2 3 2 3 3 3 3 2 2
4 5 5 6 6 6 6 6 6 6 6 5 5 5 5 5 5 6 9 11 9 8 9 8 7 7 7 7 6 6 5 5 5 5 5 5 6 5 5 6 6 6 5 6 6 6 5 5 6 6 7 7 8 9 9 8 9 9 9 8 9 10 10 10 9 9 9 9 10 9 9 12 12 7 3 4 4 4 5 3 3 3 3 3 3 2 2 1
5 5 6 7 7 6 6 6 6 6 5 5 5 5 5 5 6 9 10 10 9 8 8 8 8 7 7 6 6 5 5 5 5 5 5 5 5 5 5 5 6 5 5 5 6 5 5 5 5 6 7 8 8 8 9 8 9 9 8 8 8 8 9 9 9 10 9 10 11 10 10 12 13 9 5 5 6 7 6 5 3 3 3 3 3 2 2 1
5 5 6 7 7 6 6 6 6 5 5 5 5 5 6 6 8 10 11 9 9 8 7 8 7 6 6 4 5 6 5 5 5 5 5 4 4 5 5 5 5 5 5 5 5 5 5 5 5 6 6 7 8 8 8 8 9 9 8 8 8 8 9 9 9 9 9 11 12 11 10 11 13 12 8 7 8 8 8 6 4 3 3 3 3 2 2 1
6 6 6 7 7 6 6 6 6 5 5 5 5 5 7 9 10 10 10 9 9 8 7 6 6 5 5 3 4 5 5 5 5 5 5 5 5 5 5 6 6 6 6 6 6 5 6 5 5 6 6 6 7 7 7 7 8 8 7 8 8 8 9 9 9 9 10 11 11 11 11 11 14 13 9 9 9 9 9 8 5 3 3 2 2 2 1 1
8 7 7 7 7 6 6 6 5 5 5 4 5 6 8 11 11 8 7 8 8 7 5 5 5 4 4 4 5 5 5 5 5 5 5 5 6 6 5 6 6 6 7 7 6 6 7 6 5 6 6 6 7 8 8 7 7 7 7 8 9 9 9 9 10 10 11 11 9 11 12 12 15 13 8 8 9 9 9 8 6 4 3 2 2 2 1 0
8 8 8 7 7 6 6 6 5 4 4 5 6 8 10 11 10 7 6 7 6 5 5 5 4 4 4 5 6 5 5 5 5 5 6 6 6 6 5 5 5 6 7 7 7 6 7 7 6 7 7 7 7 8 9 8 8 8 8 9 10 9 9 10 11 11 11 11 10 11 12 13 15 11 5 6 8 8 8 7 6 4 3 3 2 2 1 0
8 8 7 7 6 6 5 5 5 4 5 5 7 9 11 11 8 6 7 6 5 4 4 4 4 5 6 5 5 4 5 6 5 5 6 6 6 5 5 5 5 6 6 7 7 6 6 7 7 6 6 6 7 9 9 8 8 8 8 9 9 9 9 10 10 10 11 11 10 11 12 13 12 7 4 6 6 6 7 6 5 4 4 3 2 2 1 1
8 7 7 7 6 6 6 5 4 4 5 5 8 11 10 9 7 6 6 6 5 4 4 5 5 6 7 6 5 5 5 5 5 6 6 5 5 5 4 4 5 5 5 7 7 7 6 7 7 6 5 6 7 9 8 8 8 8 8 9 9 8 9 9 10 10 10 11 11 11 13 12 11 8 5 5 6 6 6 5 5 4 4 3 3 2 2 1
7 7 7 6 6 6 5 4 4 4 5 6 10 10 7 6 6 5 5 5 4 4 4 6 6 5 5 5 5 6 5 5 6 6 6 6 5 4 4 4 4 4 4 5 7 8 7 8 7 7 7 7 6 7 8 7 7 8 9 9 9 8 8 9 10 11 11 11 10 11 12 13 14 12 6 5 6 6 5 5 5 4 4 4 3 3 2 2
7 7 7 6 6 5 4 4 4 4 6 7 8 7 4 4 4 3 4 4 4 4 5 6 6 5 4 4 6 5 5 6 7 6 7 7 6 5 4 4 4 4 3 3 5 7 7 8 8 8 8 7 6 7 8 7 6 7 8 8 9 9 10 10 11 12 12 11 10 11 11 12 15 13 7 6 7 6 5 5 5 4 4 4 4 3 3 2
7 8 7 6 5 5 4 4 4 5 7 8 8 6 3 3 3 2 2 4 4 4 5 6 5 5 5 5 6 5 4 6 6 6 7 7 6 5 4 4 4 5 4 3 5 6 7 9 9 8 8 8 7 8 9 8 7 6 7 7 8 9 11 11 12 13 14 11 11 12 11 13 16 15 11 9 8 7 6 5 5 5 4 4 4 4 3 2
7 8 8 5 5 5 4 4 5 6 8 7 6 4 2 2 3 1 0 2 4 5 5 5 4 5 5 5 5 5 4 4 4 5 7 7 7 6 4 4 5 5 3 3 4 5 7 9 9 8 8 8 9 9 9 10 9 8 9 9 9 9 11 12 12 12 13 13 13 12 13 15 15 11 11 12 10 8 7 6 6 5 5 5 5 4 3 3
7 9 8 5 5 4 4 6 5 4 6 6 4 2 2 3 3 2 0 0 3 4 4 4 5 5 5 5 5 5 4 4 4 5 6 6 7 7 5 4 4 4 4 4 5 6 7 9 9 9 9 10 10 8 7 8 8 9 10 10 10 11 11 13 12 11 11 12 13 13 15 17 11 5 7 10 10 9 8 7 6 5 5 5 5 5 4 3
8 9 7 4 5 4 5 7 2 -0 5 6 3 2 2 3 3 3 2 1 2 4 3 3 4 4 4 5 5 4 4 5 5 6 7 6 7 7 5 3 3 3 4 6 7 6 6 9 10 9 10 10 10 7 5 6 6 7 9 9 10 10 11 13 13 12 11 10 10 12 16 17 10 4 5 7 8 9 8 7 7 6 5 5 5 5 4 3
9 8 5 3 4 4 6 8 3 2 4 2 -0 0 1 2 3 3 3 3 3 3 3 3 3 3 4 4 4 4 4 5 6 7 7 6 6 6 4 3 2 2 4 7 8 6 6 9 10 10 11 10 9 6 5 5 5 7 9 8 9 10 10 12 11 11 12 11 12 13 16 16 10 5 5 5 6 8 8 7 7 6 5 4 4 4 4 3
8 6 4 3 3 4 7 10 8 7 5 1 1 3 2 2 3 3 4 4 3 3 4 4 3 4 4 2 2 4 4 6 6 6 6 6 6 5 3 2 3 3 4 6 6 6 7 9 10 11 12 11 10 9 8 7 7 9 10 8 8 8 9 10 9 10 12 12 12 14 17 17 11 5 6 6 6 8 8 7 7 6 5 4 4 4 4 4
7 7 6 3 2 3 6 7 7 8 6 3 4 4 3 3 2 2 3 3 2 3 3 4 3 3 3 1 1 2 2 5 6 5 5 5 6 4 2 2 3 3 4 4 4 5 7 8 9 12 13 13 13 12 11 10 9 10 9 8 8 8 9 11 11 12 13 11 10 14 17 17 12 7 6 6 6 8 7 7 7 6 5 4 4 4 4 4
8 9 8 6 4 4 3 2 4 7 6 5 6 4 3 5 3 1 2 3 2 2 2 2 2 2 2 1 2 2 2 3 4 4 4 5 6 5 2 2 3 3 3 4 4 4 5 6 7 9 11 12 12 10 7 6 9 10 10 9 8 7 8 10 12 13 14 11 12 14 14 15 14 11 8 6 6 7 6 6 6 6 5 4 4 4 4 4
8 10 9 8 7 6 4 2 3 5 5 6 7 5 4 5 4 2 2 2 2 1 1 2 1 2 3 3 3 4 2 1 2 3 4 4 4 4 2 2 2 3 3 4 4 4 7 8 6 6 8 7 6 6 4 4 7 9 10 10 9 8 7 10 12 13 13 13 15 14 10 13 16 14 10 7 7 7 6 6 6 5 5 4 4 4 3 4
8 9 5 5 8 8 7 5 4 4 4 4 5 5 5 5 5 5 4 1 1 1 2 3 2 2 3 2 4 6 4 3 4 4 4 4 3 4 5 4 2 3 4 4 4 4 7 9 6 5 7 6 4 4 4 4 5 6 7 9 9 9 8 10 12 12 12 14 15 12 9 12 15 14 12 9 7 7 7 6 6 5 5 4 4 3 3 3
6 7 3 2 6 7 5 3 3 4 5 4 4 4 5 6 7 6 3 2 2 1 2 5 5 3 2 1 2 6 6 7 8 6 4 3 2 4 7 7 4 3 3 4 4 4 6 8 5 4 7 8 6 4 4 5 6 7 7 8 8 8 9 10 11 10 10 12 13 10 8 11 13 13 12 10 8 8 7 6 6 5 4 4 4 3 3 3
7 8 6 4 5 4 1 1 2 4 4 4 6 5 4 6 7 5 2 4 6 4 2 5 6 2 1 1 1 4 6 6 7 6 4 3 3 3 6 6 4 3 3 3 3 3 6 8 4 4 8 10 8 6 4 5 6 7 9 8 8 7 7 8 9 8 8 10 10 8 9 12 11 10 9 7 7 7 6 5 5 5 5 4 4 4 4 4
6 6 6 7 7 4 2 2 2 5 6 5 7 6 5 6 6 5 4 3 5 5 4 4 5 2 0 1 1 4 5 4 5 5 3 3 3 3 4 3 2 2 2 1 1 2 5 7 5 6 11 11 7 6 6 6 6 7 9 10 9 8 8 8 9 8 10 12 11 9 12 15 11 7 6 6 6 6 6 5 5 5 5 4 4 4 4 4
4 4 4 8 9 5 3 3 2 5 8 7 7 6 5 5 3 4 6 4 1 3 3 3 4 2 2 3 3 3 3 2 2 2 1 1 1 1 1 1 -0 1 1 0 1 0 2 6 7 7 11 11 7 5 7 8 10 11 11 10 10 10 9 9 9 8 9 11 12 13 15 14 8 6 7 6 5 5 6 6 6 5 5 5 4 4 4 4
Height
874 873 872 871 871 870 869 868 867 865 865 864 863 863 862 861 861 860 860 859 859 858 858 857 857 856 855 854 853 851 849 848 847 846 846 846 847 845 844 844 844 843 842 842 840 839 837 836 836 835 833 832 832 831 832 831 828 829 828 828 825 819 816 810 808 809 808 808 808 810 809 810 816 818 817 817 819 821 823 822 822 822 821 820 820 822 825 827
873 873 872 871 870 870 869 867 866 865 865 864 863 862 861 861 860 859 859 858 858 857 857 857 856 855 855 853 853 851 849 848 847 847 847 847 846 845 845 845 844 843 843 842 841 840 839 837 837 836 834 832 833 832 832 831 829 828 825 826 820 812 811 807 806 807 807 809 808 811 811 810 816 818 816 821 824 822 825 826 823 823 824 824 825 826 827 828
873 873 872 871 870 869 868 867 866 865 865 864 863 862 861 860 859 859 858 857 857 856 856 856 855 855 854 853 852 850 849 848 848 848 848 847 846 846 845 845 844 843 843 843 842 841 840 839 838 837 835 833 834 834 832 831 830 826 824 825 816 810 812 810 810 810 810 809 808 813 814 814 820 820 816 820 825 827 833 837 831 830 833 834 833 831 830 829
874 873 872 871 870 869 868 867 866 865 865 864 863 862 860 859 859 858 857 857 857 855 855 855 854 854 853 852 851 850 850 848 847 849 848 847 847 846 845 844 844 844 843 843 842 842 841 841 840 838 836 834 836 836 832 831 829 826 824 822 814 813 815 812 812 812 812 810 809 813 814 819 823 821 820 818 824 833 842 846 844 844 844 842 839 836 835 832
874 873 872 871 870 869 868 867 866 866 865 864 863 862 861 860 859 858 857 856 856 855 855 854 854 853 852 851 850 850 848 844 845 849 848 847 847 846 846 845 844 844 843 843 842 842 841 841 840 839 837 835 837 835 831 831 830 827 823 819 817 818 817 814 814 816 816 814 812 813 815 821 824 827 829 822 826 840 850 852 851 850 848 847 844 841 839 836
873 872 872 871 870 869 868 867 866 865 865 864 863 862 861 860 859 858 857 856 855 855 854 853 854 853 852 851 849 849 846 842 846 849 848 847 847 846 846 845 845 844 844 843 843 843 842 841 840 841 840 837 837 834 831 833 833 829 822 820 821 821 820 816 816 819 819 818 816 815 817 822 827 834 840 838 842 851 855 854 853 852 850 850 847 843 842 842
873 872 871 871 870 869 868 867 866 865 865 864 863 862 861 860 859 858 857 856 855 855 854 853 853 852 851 850 849 848 846 846 848 849 848 848 847 847 847 846 846 845 844 844 844 843 842 842 841 843 842 838 838 836 834 835 835 833 825 823 824 823 823 819 818 821 820 821 820 818 821 825 828 835 843 849 855 855 855 855 854 852 852 851 849 846 847 846
873 872 871 870 870 869 868 866 866 865 864 863 862 861 861 860 859 858 857 856 855 854 854 853 852 852 851 850 849 847 847 849 849 849 848 848 847 847 847 847 846 846 845 845 844 844 843 843 843 844 841 837 839 838 837 837 835 834 828 826 827 825 825 822 821 822 821 822 821 822 827 831 832 837 847 855 858 857 856 857 855 853 854 853 852 852 851 848
873 872 871 870 869 868 867 866 865 865 864 863 862 861 860 859 858 857 857 856 855 854 853 853 852 852 851 851 850 846 847 849 849 849 848 848 848 847 847 847 847 846 846 846 846 845 844 844 844 844 841 840 841 838 839 837 833 834 832 830 830 828 826 824 823 822 822 822 822 827 833 836 836 838 850 859 858 859 858 858 857 855 856 857 857 858 854 850
872 872 871 870 869 868 867 866 865 864 863 862 861 861 860 859 858 857 856 856 855 854 853 853 852 852 851 851 850 846 847 849 849 849 848 848 848 848 848 847 848 847 847 847 846 846 845 845 845 845 844 842 842 840 841 839 834 836 835 832 832 830 828 826 824 823 822 822 822 829 834 837 836 837 852 861 859 859 859 859 859 857 859 861 862 861 856 854
872 871 870 869 868 868 867 865 864 864 863 862 861 860 859 859 857 857 856 855 855 854 853 853 852 852 852 852 851 848 847 849 848 848 848 848 848 848 848 848 848 848 848 847 847 847 847 847 846 846 845 842 843 842 842 840 838 838 835 834 832 829 829 826 825 824 823 823 822 826 833 838 840 844 856 862 860 861 860 861 860 860 863 863 864 862 859 858
871 871 870 869 868 867 866 865 864 863 862 862 861 860 859 858 857 856 856 855 855 854 853 853 852 853 852 852 851 849 848 848 848 848 848 848 848 848 848 848 848 848 848 848 848 848 848 848 847 846 845 844 843 842 842 840 840 838 836 835 830 828 828 824 823 822 822 825 822 822 829 840 850 856 862 862 861 862 861 862 862 863 865 865 864 863 863 863
871 870 869 868 868 867 866 865 864 863 862 861 860 860 859 857 857 856 855 856 855 855 854 854 853 853 853 851 849 849 849 848 848 848 848 848 848 848 848 848 848 848 848 848 848 848 849 848 848 847 846 846 844 841 841 839 839 837 836 835 830 829 825 819 820 820 822 824 819 821 827 842 859 863 863 862 862 863 862 863 865 866 867 867 866 866 868 867
870 869 869 868 867 866 865 864 863 862 862 861 860 859 858 857 856 856 856 856 855 855 854 854 854 854 854 851 848 849 849 848 848 848 848 848 848 848 848 848 848 848 848 848 848 848 848 848 848 847 847 847 844 843 842 839 838 836 835 833 830 828 819 812 816 818 823 824 822 824 825 839 861 866 864 864 863 864 864 865 867 868 869 870 869 869 871 871
869 869 868 867 866 866 864 863 862 862 861 860 860 859 858 857 856 856 856 855 856 855 854 855 855 854 854 851 848 849 848 848 848 848 848 848 848 848 848 848 848 848 848 848 848 849 849 848 848 847 847 847 845 845 842 837 836 836 834 831 828 826 818 813 814 814 820 826 829 828 827 844 865 867 865 865 865 865 865 866 868 870 871 871 872 872 872 872
869 868 867 866 866 865 864 863 862 861 860 860 859 858 858 857 857 856 855 856 856 855 855 855 855 855 853 849 848 849 848 848 848 848 848 848 849 848 848 849 848 849 849 848 849 849 849 848 848 849 848 846 845 843 840 838 837 835 834 829 824 824 820 817 814 813 816 825 834 832 833 853 866 867 868 866 866 866 866 868 869 871 873 873 873 873 873 873
868 867 866 866 865 864 863 862 861 861 860 860 859 858 858 857 857 856 856 856 855 855 856 855 856 856 852 849 849 848 848 848 848 848 848 848 849 849 849 849 849 849 849 849 849 849 849 848 849 849 847 847 845 842 842 841 835 831 833 831 826 824 821 819 819 822 822 827 839 841 846 862 867 868 871 869 868 867 867 870 871 872 873 874 873 873 875 876
867 866 865 865 864 863 862 862 861 860 860 860 859 858 858 857 857 857 856 855 856 856 855 855 856 853 849 848 849 848 848 848 848 848 848 847 848 849 849 849 849 849 849 849 849 849 849 848 849 847 846 848 847 844 842 838 831 827 829 830 828 827 823 820 822 828 829 835 847 849 856 869 871 870 871 871 870 868 869 870 871 874 874 876 875 875 877 880
866 865 864 864 863 862 862 861 860 860 860 859 859 858 857 857 857 856 856 856 856 855 852 853 853 849 847 848 848 848 848 848 847 847 846 847 848 848 849 849 849 849 850 849 848 849 848 848 850 847 843 844 845 843 837 836 837 833 830 829 828 827 824 824 828 831 832 843 858 857 860 870 873 873 872 872 872 870 871 871 872 874 876 877 878 878 879 880
866 864 864 863 862 862 861 861 860 860 859 859 859 858 857 857 856 855 856 856 854 852 850 851 851 849 848 848 848 848 847 847 847 846 846 847 847 848 849 849 849 850 850 849 849 851 850 850 847 840 838 839 842 842 839 842 844 841 838 835 833 829 827 832 838 837 832 844 866 869 868 874 877 878 875 872 872 872 872 872 873 874 876 877 878 879 880 881
865 863 863 862 861 861 860 860 860 859 859 859 859 858 858 858 856 855 855 853 851 852 852 851 851 850 848 848 849 848 848 846 845 846 846 846 847 848 848 849 851 850 849 851 852 853 854 850 842 838 841 843 844 844 845 847 846 846 843 839 839 834 832 837 840 839 834 844 868 874 874 880 881 881 880 875 875 874 873 873 874 875 876 877 878 879 880 881
864 863 862 861 860 860 859 860 859 859 859 859 858 858 858 859 859 859 858 854 851 852 852 852 852 850 849 849 849 849 849 847 845 845 846 847 847 847 847 849 850 848 850 854 853 854 854 848 841 842 845 846 847 847 847 848 847 847 843 840 841 835 836 842 843 846 842 847 867 873 874 883 884 882 881 880 880 878 876 875 875 875 876 877 878 878 879 880
863 862 861 860 859 858 859 858 858 858 858 858 858 858 858 859 859 859 859 857 853 851 851 852 851 849 849 848 849 849 849 848 846 844 845 846 847 848 847 848 848 848 852 853 850 852 850 844 842 844 845 847 848 848 848 847 846 845 842 841 839 834 837 839 845 854 850 849 862 868 873 881 883 883 882 881 881 881 879 878 877 876 876 877 877 877 878 880
862 861 860 859 858 858 858 857 858 858 858 858 858 857 858 858 859 859 859 859 856 851 849 850 849 848 848 848 849 849 848 848 847 845 845 845 847 849 847 846 849 852 853 850 849 849 846 844 845 845 846 848 848 848 849 846 844 843 843 840 835 835 838 839 847 856 856 857 856 858 867 873 876 880 881 881 880 880 880 880 880 878 877 877 877 877 878 881
861 860 860 859 858 857 857 856 857 856 857 857 856 857 858 857 859 859 858 858 853 849 848 849 849 848 848 848 849 848 847 846 845 844 844 845 846 848 848 847 849 853 851 849 852 852 847 845 848 848 848 849 848 847 846 843 840 840 840 838 834 835 839 845 851 852 858 865 855 845 844 852 870 878 877 880 881 880 880 879 880 879 879 879 877 877 878 879
860 859 859 858 857 857 856 856 856 856 856 856 856 857 857 857 858 857 859 855 845 843 847 848 847 848 848 848 848 846 847 846 844 844 845 845 845 846 849 850 850 851 849 850 854 853 848 845 847 849 849 849 849 846 842 842 841 837 832 832 834 836 840 846 848 849 852 850 845 841 829 834 862 873 872 878 880 879 880 879 879 879 878 878 877 877 877 879
859 858 858 857 857 857 856 855 854 855 855 854 856 856 856 857 856 857 854 845 839 843 848 848 848 849 848 847 847 846 846 845 843 844 844 844 845 846 847 849 851 850 849 854 855 850 848 848 848 850 849 849 848 844 841 842 842 835 828 830 832 833 838 842 842 846 843 836 840 845 834 825 837 856 869 877 878 878 879 878 877 878 876 876 876 876 877 878
858 857 857 856 856 856 855 855 854 854 853 854 855 855 857 856 855 858 847 834 840 846 844 846 848 848 848 847 847 847 847 845 844 844 844 844 845 847 847 847 848 849 850 852 851 847 849 850 848 848 848 847 842 838 839 843 841 834 832 833 830 827 832 837 839 841 840 838 840 842 838 821 820 851 873 874 875 874 874 875 874 875 875 874 875 875 876 878
857 856 856 856 856 856 855 855 854 853 853 854 854 854 855 855 856 855 843 834 842 846 842 845 847 847 847 847 846 848 848 847 846 845 844 845 844 846 848 846 846 849 851 849 846 846 849 849 846 846 846 842 837 836 838 841 837 833 836 838 835 830 830 834 836 837 839 838 831 831 834 817 814 850 872 869 868 862 859 867 869 870 872 871 873 874 875 877
856 856 855 855 855 855 855 855 854 854 854 853 854 854 853 856 853 843 836 838 843 844 844 844 847 848 848 849 848 848 849 848 847 846 845 846 845 846 847 846 847 850 852 851 849 848 850 850 849 848 844 838 837 837 837 838 834 834 838 839 842 839 834 837 834 834 840 831 817 819 827 815 806 830 852 852 845 839 844 858 864 867 868 868 870 872 874 876
855 855 855 855 855 855 855 855 854 854 854 854 854 854 853 854 847 834 834 843 844 845 847 846 849 850 851 857 854 848 849 848 846 847 846 846 847 848 847 847 849 849 850 851 850 848 849 851 849 846 844 841 840 839 837 837 835 837 840 840 843 840 835 838 835 837 838 819 803 808 820 819 802 805 826 829 824 824 831 841 851 857 860 863 867 869 872 875
854 854 855 855 854 855 854 854 854 854 855 855 854 854 851 842 838 840 842 842 841 847 852 852 853 853 856 862 858 851 850 847 845 846 845 844 844 846 845 843 845 845 845 843 845 847 844 845 847 844 844 843 841 839 839 840 839 840 843 841 839 835 835 836 831 832 826 811 807 806 811 815 797 794 812 816 817 821 821 826 839 848 853 859 864 867 871 873
853 854 854 854 854 854 854 855 855 855 855 855 855 854 846 830 833 853 856 847 845 853 857 856 856 857 859 856 852 853 851 847 847 845 844 843 841 843 844 843 843 842 839 836 841 845 838 838 846 844 841 840 838 835 834 839 840 839 840 837 828 825 831 829 821 818 813 812 817 810 808 806 788 795 816 815 815 819 820 826 835 844 851 856 862 866 869 872
852 853 853 854 854 853 854 854 854 856 856 856 855 849 838 830 841 859 860 854 857 859 859 859 859 857 855 852 851 854 851 848 849 845 842 842 840 842 844 845 845 842 840 837 840 844 837 832 838 837 833 835 835 829 826 831 834 832 831 828 822 822 825 818 807 806 805 810 818 811 806 798 784 803 826 822 820 822 823 828 834 844 852 855 862 866 868 872
851 852 853 854 853 853 854 854 855 857 855 857 854 840 832 837 851 860 858 859 863 862 860 862 860 853 849 851 854 855 853 849 848 846 844 843 843 845 846 846 846 843 840 837 837 846 844 834 833 835 834 835 832 826 826 830 829 830 830 827 826 825 824 820 811 809 806 804 813 809 798 793 798 819 832 826 824 826 826 832 837 844 851 853 859 863 866 870
850 851 852 853 853 853 854 853 856 856 857 859 849 836 838 845 853 860 859 859 862 864 860 855 854 851 846 849 852 854 854 851 848 845 843 845 847 848 850 848 847 846 844 839 834 837 840 834 832 836 837 835 830 825 828 830 828 830 829 824 824 824 826 823 812 811 809 801 808 807 793 794 802 814 827 828 826 827 829 834 837 841 847 852 855 858 863 866
850 851 851 852 853 853 853 854 856 855 858 858 844 841 856 859 857 862 863 860 863 867 861 850 849 854 855 856 851 849 850 847 845 843 840 843 847 849 851 850 847 847 849 846 837 831 832 830 829 831 830 832 833 830 830 832 830 828 823 819 821 825 830 825 810 805 804 801 809 808 798 794 786 795 823 831 824 827 829 830 835 840 843 847 850 854 858 862
850 850 851 852 852 853 854 853 855 856 857 856 851 857 869 867 864 866 865 863 864 865 861 853 851 856 863 862 851 849 851 843 841 843 839 839 843 847 850 848 846 846 850 852 846 836 831 826 826 828 826 829 833 831 829 831 832 830 825 821 821 819 817 815 809 798 794 804 811 805 804 798 778 785 815 820 813 819 824 827 831 834 837 840 844 850 856 860
849 850 850 852 852 852 853 852 855 857 852 851 855 863 871 871 870 872 869 866 866 863 859 856 856 857 860 858 851 852 855 848 845 846 839 837 840 844 847 846 845 844 847 850 845 839 831 823 824 827 825 826 830 828 824 823 828 832 829 825 824 818 807 801 800 788 786 803 806 799 803 791 766 770 788 793 799 807 813 820 823 824 829 834 839 845 852 856
849 849 850 853 851 851 854 853 854 853 849 854 861 867 875 875 871 874 875 870 866 862 857 858 860 858 856 855 852 854 857 855 854 848 842 841 840 842 845 845 843 843 847 850 846 842 835 824 823 826 826 825 822 821 817 813 816 820 819 819 819 815 805 797 797 793 790 793 792 795 794 773 765 778 779 777 787 796 802 808 814 819 826 830 835 841 847 852
849 847 849 852 851 852 854 852 856 860 855 859 868 873 877 873 869 873 875 873 869 864 861 861 859 858 856 852 851 854 855 855 854 849 845 843 838 839 844 845 845 844 844 844 840 839 833 821 821 824 822 817 813 818 823 819 818 813 807 809 808 805 800 792 795 802 802 794 789 790 775 757 776 800 793 784 787 790 798 805 810 818 823 828 833 837 844 850
849 846 849 852 850 853 852 852 867 874 860 857 867 873 873 870 870 871 871 874 871 866 866 865 863 861 858 853 851 855 856 852 848 843 841 844 840 838 842 845 846 846 842 833 828 835 833 821 818 820 818 812 812 824 830 826 827 823 814 813 809 805 799 787 786 795 802 806 803 792 771 760 784 806 800 797 794 790 798 804 808 816 821 827 831 835 843 847
849 849 852 853 851 854 851 849 863 869 861 866 873 873 872 870 869 870 870 871 870 868 867 864 864 862 859 859 858 855 853 849 845 840 838 842 840 838 843 846 845 846 842 828 823 833 833 820 815 814 810 810 815 826 832 830 830 820 813 814 810 807 804 796 797 798 795 798 794 782 770 763 782 803 801 801 800 794 798 803 807 815 821 826 831 834 840 844
851 852 854 854 852 853 848 842 847 851 858 871 871 865 869 869 867 867 867 868 868 868 866 862 863 861 860 864 863 856 852 845 842 842 841 840 839 840 846 846 843 843 839 832 831 832 826 818 813 803 795 799 806 811 815 820 821 810 807 815 815 813 811 805 807 802 789 792 790 776 765 761 779 801 800 799 801 795 796 803 806 813 819 824 830 833 837 841
851 851 853 856 855 854 850 847 846 846 857 868 863 861 865 864 865 867 865 867 869 869 867 864 865 864 864 868 867 864 860 847 842 845 845 843 840 842 847 846 844 842 838 839 841 834 827 822 813 797 787 789 791 792 799 807 810 805 806 813 813 814 808 797 797 790 782 797 800 777 761 760 777 796 798 797 799 795 797 802 804 810 816 820 825 829 833 838
849 846 848 853 855 855 855 857 854 849 854 859 855 859 862 857 862 868 866 865 868 870 870 867 868 867 866 867 866 863 862 856 851 849 847 843 837 839 845 845 843 843 840 838 839 838 835 829 822 810 799 795 794 802 819 823 810 799 801 806 809 814 811 798 791 782 780 794 791 775 772 769 767 780 792 797 797 796 799 802 803 809 813 817 823 826 830 834
846 845 848 849 850 852 854 858 857 852 853 851 846 853 858 855 859 865 865 867 867 869 871 870 871 866 861 863 860 855 860 863 858 852 847 845 843 842 843 844 843 841 838 836 836 837 829 820 827 828 818 820 824 827 836 834 817 805 801 798 802 811 813 803 790 782 784 785 774 776 791 780 761 767 782 791 795 795 797 799 801 805 809 814 820 824 828 831
845 846 854 854 848 846 847 852 856 855 856 855 853 855 855 853 854 853 858 867 868 868 866 862 866 864 860 863 856 847 853 855 849 847 845 844 847 840 832 838 843 839 837 835 835 836 825 817 831 835 823 828 837 835 835 833 827 823 815 803 800 805 807 799 788 785 785 776 768 782 797 782 763 765 773 782 789 790 792 796 798 802 808 812 817 820 824 826
849 848 855 857 850 851 855 858 860 857 854 855 855 856 853 848 846 848 858 864 862 867 864 852 854 861 862 866 861 847 844 838 831 838 846 847 848 839 825 828 836 838 838 836 836 839 828 820 836 840 823 818 827 832 835 829 821 818 813 808 806 806 804 796 789 793 794 782 778 793 801 785 768 766 770 777 784 787 791 796 798 801 805 808 812 815 816 818
846 843 849 853 853 858 863 863 861 856 854 855 849 849 854 848 843 849 858 854 847 856 863 851 849 859 863 866 864 851 843 840 833 837 847 848 846 842 832 829 835 839 839 839 842 841 827 823 841 842 817 806 816 826 830 828 821 813 805 804 809 812 812 805 799 805 802 788 787 799 796 779 771 775 780 784 787 789 792 795 796 799 801 804 808 809 810 811
842 841 844 845 846 855 860 862 862 854 849 849 843 843 849 847 844 848 851 851 847 847 854 851 848 858 865 866 864 853 846 849 845 843 850 850 845 845 842 843 846 843 841 845 846 842 831 826 837 833 806 799 818 826 822 822 822 813 798 793 798 803 804 799 796 798 790 777 785 795 779 762 769 784 788 788 790 791 792 794 795 796 798 800 801 802 803 804
843 843 844 841 840 850 856 857 861 851 838 838 840 842 844 845 851 849 841 848 857 852 851 853 850 855 858 856 855 851 848 851 852 851 855 854 852 853 850 852 854 848 848 852 848 850 843 826 827 829 806 799 822 831 821 814 803 789 783 785 786 786 789 792 791 791 786 776 775 773 760 758 776 786 783 787 793 791 789 790 791 792 795 797 797 797 798 799
Wind_Speed
12 11 12 11 10 10 10 11 11 11 11 12 12 11 11 11 11 10 9 9 8 9 9 9 10 11 12 12 12 14 16 16 11 8 9 9 11 6 4 6 7 8 9 10 11 10 7 5 6 5 1 1 1 0 1 1 3 4 5 7 8 10 9 8 10 8 5 6 6 8 8 8 7 6 5 5 7 7 6 5 5 4 3 4 11 17 19 20
12 11 11 11 9 10 11 12 12 12 12 13 13 12 12 11 11 11 10 10 9 9 8 8 10 11 12 12 12 13 15 12 4 6 9 13 11 5 4 5 5 7 9 8 8 9 7 5 6 5 1 1 1 1 2 2 4 5 5 7 9 8 5 4 5 5 3 5 6 6 4 5 5 5 4 4 6 7 7 6 6 9 9 8 11 12 14 17
11 11 11 10 9 10 12 12 12 13 13 13 12 11 11 10 10 11 10 10 10 9 8 8 9 10 11 11 11 12 13 7 3 4 9 13 13 9 7 5 5 6 7 7 6 6 5 4 6 5 1 0 1 1 3 3 5 6 5 7 8 4 3 2 1 2 2 4 6 6 3 4 4 1 2 8 9 7 7 5 4 7 7 8 10 13 11 14
11 11 10 10 10 11 12 12 12 13 13 12 11 12 12 11 11 11 10 9 9 9 8 8 9 10 11 11 13 12 10 3 4 4 8 11 12 9 7 5 4 5 4 5 4 4 3 3 5 4 1 1 1 1 4 5 4 4 6 7 3 1 4 3 2 3 3 5 5 7 7 6 5 4 1 9 9 6 5 7 7 6 8 11 10 13 12 16
10 11 10 10 11 11 11 12 12 13 13 12 11 13 14 13 12 11 11 8 7 9 8 8 8 10 11 12 14 12 6 3 3 6 9 9 9 7 7 5 4 3 2 3 3 3 2 2 4 2 1 1 2 2 4 4 2 3 8 7 2 1 4 2 5 5 4 4 5 7 8 6 5 7 8 3 5 4 3 7 9 8 8 10 9 10 12 16
10 10 10 10 10 11 11 11 12 12 12 12 12 13 13 13 12 11 10 8 6 8 8 8 8 9 10 12 14 10 4 1 4 5 8 8 7 5 6 7 7 5 3 2 2 3 2 2 2 1 1 1 4 3 2 2 2 4 7 7 5 4 3 2 5 6 5 3 4 6 6 7 8 8 11 11 8 6 6 8 8 9 11 10 8 11 13 14
10 10 10 10 10 11 12 11 11 11 11 11 12 12 12 12 12 11 10 8 7 8 8 7 7 8 11 12 10 5 2 2 3 3 7 7 5 3 3 6 7 6 4 2 3 3 3 2 2 0 1 1 3 3 0 1 3 6 6 4 5 4 4 5 5 5 5 3 2 3 7 7 8 8 8 12 10 7 9 10 9 11 13 12 11 13 13 14
10 10 10 10 10 11 13 12 10 11 11 9 9 12 12 11 11 11 10 9 8 8 7 6 7 9 10 10 6 2 2 3 1 3 7 7 4 3 3 4 6 7 6 6 5 3 4 3 1 0 2 0 1 2 0 2 5 7 7 3 3 3 4 6 7 6 4 2 1 7 10 10 9 10 9 9 9 8 9 10 10 12 13 12 12 12 12 15
10 9 9 10 10 11 12 12 10 10 11 9 8 10 12 11 11 10 9 9 9 8 6 5 6 8 7 7 5 2 2 4 3 4 8 8 5 5 4 5 7 7 7 7 5 3 3 1 1 1 2 2 1 2 1 4 4 4 6 4 4 4 4 7 7 5 3 3 6 11 12 11 10 9 9 8 7 7 9 10 10 12 13 12 10 10 12 15
10 9 9 9 9 9 11 12 10 9 10 11 9 10 11 12 12 10 8 8 8 7 5 4 4 5 5 4 4 1 2 4 4 5 8 8 5 5 4 5 7 7 6 5 5 4 3 1 2 1 2 1 2 2 1 4 2 3 5 5 6 7 6 6 6 6 4 5 8 12 11 8 6 3 4 6 6 5 8 10 10 11 12 11 9 9 13 15
9 10 9 9 9 9 10 11 9 9 10 11 11 11 11 13 13 10 8 7 6 6 4 2 3 3 2 2 3 1 1 4 6 6 7 6 4 4 4 5 5 5 4 4 4 4 3 2 1 1 2 1 2 2 1 3 5 4 4 5 6 7 8 9 9 8 5 6 9 12 12 7 8 4 4 5 5 5 8 9 9 11 10 10 10 10 12 13
9 9 9 9 9 9 10 10 8 9 10 10 11 11 13 14 12 9 6 5 5 5 3 2 3 2 1 1 2 2 3 7 7 5 4 4 4 4 4 4 4 3 2 2 2 2 3 2 1 2 2 2 3 4 1 3 5 4 4 5 6 6 9 13 11 9 7 7 11 12 8 3 7 6 5 5 5 5 8 9 9 10 9 9 10 10 12 12
9 9 8 9 9 9 10 9 7 9 9 10 11 12 14 13 10 7 4 3 4 4 3 3 2 1 1 2 1 2 5 6 4 2 2 2 2 3 3 3 3 2 1 2 2 1 1 1 2 2 2 2 3 2 3 3 4 5 4 5 5 5 7 13 12 10 9 8 13 11 6 3 5 6 4 4 4 5 7 9 8 8 7 8 9 8 9 12
9 9 8 9 9 9 10 8 7 9 9 10 11 12 13 10 7 4 2 2 2 3 3 3 1 1 1 3 2 4 4 3 3 4 3 1 2 1 2 2 3 2 2 2 2 1 0 1 2 1 1 2 3 3 4 3 3 4 5 5 5 6 5 9 13 12 10 5 7 10 8 5 5 5 4 3 4 5 7 8 7 7 6 6 8 7 7 10
9 9 8 9 9 10 10 8 7 9 9 9 11 11 10 7 5 1 1 1 1 1 2 1 1 1 2 3 3 3 1 2 4 4 5 4 2 2 3 3 3 3 2 2 3 3 1 1 2 2 0 2 3 3 3 3 2 3 5 5 5 7 2 5 13 16 14 2 4 5 6 4 4 4 4 3 5 6 7 8 7 7 7 6 6 6 6 8
9 9 8 9 9 9 10 9 8 9 9 9 10 10 7 5 5 1 1 2 2 2 2 1 1 1 3 1 1 1 1 2 3 2 3 5 2 1 3 3 3 3 3 3 3 2 1 0 0 1 1 2 2 2 3 3 3 3 5 5 5 8 5 3 8 11 13 4 6 2 4 4 4 4 4 3 5 7 7 8 8 7 6 6 6 5 6 7
9 9 8 8 9 9 10 9 8 8 9 8 10 8 3 3 4 1 2 2 1 2 1 0 2 1 2 1 1 1 1 2 3 2 4 5 3 1 2 2 3 3 3 2 2 1 0 1 1 1 1 2 2 3 3 5 5 5 5 5 5 7 7 4 4 2 1 3 4 5 6 6 5 6 5 4 5 6 7 7 7 6 6 6 6 6 6 6
9 9 8 8 8 9 9 9 8 8 8 8 8 6 3 3 3 2 2 2 1 2 2 1 2 1 1 2 2 1 1 4 5 6 8 7 4 3 2 1 2 3 2 2 2 2 1 1 1 3 2 2 3 4 6 3 3 4 5 6 6 6 8 7 4 3 5 8 6 6 9 8 7 6 5 5 5 6 7 6 6 6 6 6 6 6 6 5
9 8 8 8 8 8 8 8 7 8 8 7 7 5 4 4 3 2 1 1 1 3 1 1 2 2 2 1 2 2 4 7 8 7 5 3 3 5 3 2 2 2 2 2 2 2 1 2 2 4 5 5 6 6 6 2 5 3 4 5 6 6 7 4 1 5 8 10 7 5 8 10 8 6 5 5 4 6 7 6 6 5 5 6 6 6 6 6
9 8 8 8 7 7 7 8 7 8 7 5 5 4 3 3 2 2 1 3 5 4 3 1 3 4 4 2 2 5 7 6 6 4 4 4 4 5 3 2 2 3 4 3 2 1 1 3 5 5 3 3 6 7 6 3 4 4 4 5 6 7 5 1 4 5 8 8 6 5 8 9 7 6 4 4 5 6 6 6 5 5 4 5 6 7 7 6
9 8 8 7 7 6 7 7 6 7 6 4 4 2 1 2 2 2 2 4 6 5 5 4 3 6 6 4 5 5 4 3 4 2 4 5 5 5 3 4 5 5 4 1 1 1 1 6 7 4 1 2 3 5 5 5 4 5 5 5 6 8 5 3 4 3 2 4 4 6 8 7 5 5 4 3 5 5 4 5 5 6 5 5 6 7 7 6
10 8 8 7 6 6 6 6 5 5 4 2 2 0 1 1 2 3 3 4 4 3 4 4 3 6 6 6 5 2 1 3 3 3 5 5 5 5 4 6 7 6 4 3 3 3 5 7 5 1 2 3 3 4 5 6 7 6 6 6 6 7 4 1 4 1 5 2 7 8 7 5 3 4 5 4 4 4 3 4 5 6 6 6 6 6 6 6
10 9 8 7 6 6 5 5 4 3 1 2 1 3 3 1 1 2 2 4 3 2 3 3 3 4 3 2 2 4 2 4 3 2 6 8 5 3 5 7 8 6 5 7 7 6 5 4 3 4 5 5 5 5 6 6 6 6 6 6 7 6 5 4 2 3 6 1 9 11 6 3 2 2 3 3 3 4 4 4 4 5 6 6 6 6 7 6
10 9 8 7 6 5 4 3 2 1 1 2 2 5 3 2 0 2 1 3 3 2 2 3 3 3 2 0 3 4 3 2 3 1 6 10 4 2 5 7 7 6 6 9 10 10 7 2 2 3 6 6 7 7 7 6 5 7 8 8 7 7 5 1 3 5 6 3 11 13 5 0 3 3 2 2 2 3 4 4 4 4 5 6 7 7 7 6
9 9 8 7 6 4 2 2 1 2 2 1 4 6 3 2 1 1 1 2 2 1 1 2 2 2 2 1 3 3 4 3 4 1 5 9 5 3 4 4 4 6 8 9 9 9 10 5 1 2 4 6 7 7 9 8 5 6 9 11 10 7 4 5 6 6 3 2 9 9 4 3 3 5 5 4 3 3 4 4 4 4 5 6 7 8 7 6
9 8 7 6 5 3 1 1 2 2 2 1 5 6 4 1 0 2 1 2 1 1 0 1 2 2 2 2 3 2 4 2 2 1 4 7 5 3 3 3 2 5 6 6 5 5 7 8 6 5 4 6 7 7 9 9 6 5 6 11 12 8 6 9 9 6 2 3 8 9 7 4 3 5 7 6 4 5 4 5 6 5 5 6 6 6 7 6
8 7 6 5 4 2 1 2 2 2 1 3 6 6 3 1 1 3 2 1 1 0 1 0 1 2 1 2 2 4 4 2 2 2 3 5 4 1 3 6 3 2 4 3 3 3 3 7 9 9 9 8 8 7 8 9 8 4 1 8 14 12 10 11 10 7 4 1 6 9 6 4 4 5 7 8 6 6 7 8 8 7 7 7 6 6 7 6
7 5 4 3 2 2 2 2 2 2 2 4 6 5 3 1 2 3 1 1 1 1 0 0 1 1 1 2 2 3 4 4 3 1 0 4 5 1 3 7 6 5 7 6 4 1 3 5 8 10 10 9 9 7 6 9 10 4 3 2 10 13 12 11 9 7 6 3 6 9 7 5 4 3 6 8 7 8 11 12 11 10 10 9 8 8 8 7
7 4 3 2 1 1 2 1 2 2 4 6 5 3 3 2 2 3 0 0 1 1 1 1 2 1 3 3 1 2 3 3 2 1 2 3 5 2 2 6 7 7 8 8 5 0 1 3 3 6 8 7 8 7 8 10 10 3 3 3 4 8 9 9 8 6 6 6 7 10 9 6 5 4 6 7 7 11 12 11 11 11 11 11 10 10 9 8
6 4 2 1 2 2 2 1 1 2 5 6 4 3 4 4 2 1 1 1 1 1 0 1 1 3 8 7 3 1 1 2 1 1 1 1 4 3 1 1 3 6 7 8 7 2 0 1 1 4 7 6 5 6 7 10 10 3 2 1 3 6 7 5 6 5 5 7 8 13 11 7 6 6 9 8 6 10 11 9 11 12 12 12 10 10 9 8
5 3 2 2 2 2 1 1 1 3 5 4 3 4 4 2 1 1 2 1 1 1 1 0 1 4 9 8 3 2 2 2 1 1 1 1 3 3 1 1 2 3 5 6 7 5 3 3 2 3 6 6 4 5 6 8 9 6 3 4 4 5 5 4 4 3 4 7 8 16 13 9 8 4 8 11 6 10 14 14 17 18 16 13 11 10 10 8
1 1 3 2 2 1 1 2 1 3 4 4 4 4 2 1 0 0 2 3 2 1 2 1 1 5 7 5 2 4 4 2 1 2 2 1 3 4 3 2 3 3 3 4 4 3 5 5 1 0 3 6 6 5 5 5 7 6 5 5 5 5 4 4 4 3 5 4 3 14 14 9 8 1 5 14 11 11 14 13 15 17 16 14 12 11 9 7
3 2 2 2 2 1 1 2 3 4 4 5 3 2 1 1 2 1 2 3 2 1 1 2 4 5 5 3 2 3 2 1 3 3 1 1 2 3 1 1 1 1 1 2 3 1 2 2 3 2 3 6 8 6 5 4 6 7 6 5 6 5 4 6 7 5 5 2 0 10 11 6 6 1 0 9 10 9 9 10 13 15 15 14 11 10 9 8
6 3 0 1 1 1 2 2 4 4 4 5 3 2 2 1 1 1 2 3 1 2 2 2 5 5 1 1 2 3 1 1 3 4 2 0 1 1 1 0 0 1 1 1 2 2 2 1 4 5 2 6 10 8 3 2 5 7 4 3 4 2 2 4 5 4 3 2 2 8 9 4 4 3 1 2 4 5 6 8 12 14 14 13 11 9 11 11
9 6 4 3 3 1 2 4 5 5 4 3 3 1 2 0 2 1 1 3 2 3 4 1 3 3 1 0 0 2 1 1 3 4 2 2 1 1 1 1 2 1 2 2 1 2 3 2 2 2 0 6 12 9 4 2 4 5 2 3 3 1 1 2 2 2 1 4 4 5 5 1 1 3 2 0 4 7 8 8 13 14 14 14 12 12 12 11
10 6 5 5 4 3 3 6 6 5 3 2 2 0 1 1 2 2 1 1 0 3 6 2 1 2 3 2 1 1 1 2 2 3 1 1 1 2 2 2 2 2 1 2 1 2 2 2 2 2 2 7 9 7 5 3 2 3 3 4 2 3 0 3 2 1 1 2 3 1 2 1 3 3 3 4 7 9 10 11 14 15 16 16 13 13 13 12
11 5 3 5 4 3 5 6 6 4 2 2 2 1 0 1 1 2 1 1 0 1 4 2 2 3 3 2 2 3 2 1 2 4 1 0 1 1 1 1 1 0 1 1 2 1 1 2 1 3 4 4 3 1 2 1 1 2 3 2 2 3 1 3 2 1 1 0 2 0 2 1 4 3 4 7 10 12 13 13 15 16 17 17 14 14 15 15
10 5 3 4 3 3 5 6 6 3 1 1 1 1 0 1 1 1 1 0 1 1 2 1 1 1 0 1 2 4 4 3 5 5 2 1 0 1 1 1 2 3 3 2 1 2 2 0 1 2 3 2 2 1 2 2 2 3 2 2 0 2 2 3 2 1 1 1 1 1 2 3 7 4 6 12 14 15 15 15 16 19 19 17 15 16 17 17
8 4 2 3 1 5 6 6 6 2 1 0 0 1 1 1 2 2 2 1 2 2 2 1 1 1 1 2 2 2 2 3 5 5 2 3 2 2 1 1 2 3 4 4 2 2 3 1 1 1 2 3 2 3 3 3 4 3 2 1 0 2 2 2 1 1 2 1 1 1 2 4 7 4 9 15 17 18 18 17 18 20 20 17 15 17 18 18
5 2 1 3 2 8 7 6 4 1 0 1 1 1 1 2 3 3 3 3 2 2 2 2 2 2 2 2 2 1 1 1 2 3 2 3 2 1 1 2 3 2 4 4 3 1 2 1 1 2 1 2 3 3 3 3 3 3 3 3 2 2 2 1 1 2 1 2 3 3 1 5 2 0 5 10 15 18 19 18 16 17 18 17 17 18 18 17
2 1 1 2 5 10 8 4 2 1 1 2 1 1 0 1 2 2 3 3 3 2 2 2 3 2 2 2 1 1 2 1 1 1 1 2 2 1 0 2 4 2 3 3 3 3 1 1 2 3 3 4 3 1 1 3 3 3 3 2 2 2 2 2 3 0 1 1 2 2 2 2 1 2 1 1 8 14 15 14 13 15 18 17 17 19 19 17
1 1 1 0 8 11 4 1 2 1 1 1 1 2 1 2 1 2 1 1 3 2 1 2 3 3 3 2 1 1 2 2 1 1 1 1 2 1 0 1 4 3 2 2 2 3 2 1 2 3 3 4 2 1 1 3 3 4 3 1 1 1 2 3 1 1 1 1 1 1 1 1 2 1 2 2 2 8 12 12 12 14 16 16 17 20 19 17
1 0 1 1 10 10 1 0 1 0 1 0 1 3 2 1 1 1 1 1 2 2 2 2 2 3 3 2 2 2 1 2 2 1 1 2 2 1 2 1 3 2 2 2 1 2 2 2 2 2 3 4 3 4 3 3 3 3 2 1 1 1 1 2 2 1 2 2 1 2 1 2 2 1 1 2 2 6 11 12 12 13 13 15 17 19 18 17
0 1 1 1 8 8 2 0 1 1 1 0 1 2 3 2 2 2 2 2 1 1 2 2 2 2 2 1 2 3 2 1 1 1 1 1 1 3 4 2 3 2 2 2 3 1 1 1 1 2 3 4 3 3 2 2 3 3 1 1 1 1 2 2 1 1 2 0 1 2 1 2 2 1 1 0 3 7 11 13 13 14 13 15 16 16 17 17
1 0 1 2 4 4 1 0 1 1 1 0 1 2 3 2 3 2 1 1 1 1 3 2 2 3 2 0 2 2 3 3 2 1 1 2 1 2 3 2 2 2 4 5 5 4 2 1 2 2 1 2 1 1 0 1 2 2 2 2 2 2 3 2 0 1 2 1 0 3 1 1 1 1 1 2 4 8 11 13 14 13 14 16 15 16 18 17
1 0 0 1 0 0 1 1 0 2 2 1 1 2 2 2 2 2 2 2 2 1 2 2 2 2 2 2 2 2 3 3 2 1 2 3 2 1 1 1 1 3 7 6 3 2 1 1 1 2 3 2 2 2 2 1 2 2 2 2 2 1 1 1 2 2 0 2 2 3 2 3 2 1 2 4 6 8 10 13 14 13 14 16 15 16 17 15
1 0 0 0 0 0 1 0 0 2 1 2 2 2 3 3 1 2 2 2 2 2 1 2 1 2 2 2 3 2 2 2 2 2 2 3 3 3 3 2 2 4 8 2 1 1 2 1 0 1 3 3 3 2 2 2 3 2 2 3 4 2 2 3 4 2 2 2 2 1 2 3 4 1 5 7 9 9 11 14 14 14 15 15 15 16 16 15
0 1 1 1 0 1 1 0 1 2 1 1 1 2 3 3 2 2 2 2 2 2 2 2 3 4 4 3 3 2 1 2 3 2 2 2 3 4 2 2 2 5 7 1 1 2 2 2 1 1 3 2 1 2 2 2 3 4 6 6 4 4 6 8 7 3 4 5 2 2 5 6 4 2 5 9 11 11 12 13 13 13 15 15 16 17 18 18
1 1 1 2 0 1 1 1 1 2 2 2 1 3 4 4 4 2 2 3 2 3 3 3 3 4 4 3 2 2 1 2 3 3 2 2 3 2 1 1 1 3 5 2 2 1 1 1 0 1 4 3 3 2 1 1 3 5 7 8 5 5 8 9 6 3 4 7 4 1 4 9 7 5 3 5 8 9 9 11 12 14 17 18 18 19 20 21
1 1 1 1 1 1 2 1 1 1 1 1 2 3 3 4 5 2 2 4 3 4 6 4 3 4 3 3 4 4 4 3 5 4 2 2 2 2 1 1 1 2 4 3 2 2 2 1 2 1 4 3 1 1 2 2 3 6 8 7 6 5 6 8 6 2 3 7 5 1 4 8 5 1 2 3 6 8 10 13 14 15 17 19 19 20 21 21
2 2 3 2 1 2 1 0 1 1 1 2 2 3 3 5 5 3 3 4 2 3 6 5 3 4 2 3 6 8 6 5 5 4 1 2 3 3 2 1 2 2 3 2 1 3 2 1 2 2 3 3 3 5 5 4 4 8 11 10 10 7 5 6 5 5 5 4 3 3 4 5 1 4 4 4 7 9 11 13 14 13 16 19 20 21 22 22
4 3 3 1 0 3 2 1 1 1 1 2 3 3 3 2 3 3 2 2 1 2 3 4 5 4 2 4 7 6 4 3 4 4 2 2 3 3 3 2 2 3 3 1 1 1 0 2 2 1 2 2 3 5 5 5 5 6 7 7 8 10 9 6 5 7 9 5 4 5 5 1 3 3 4 6 8 10 12 13 13 13 16 18 19 19 20 20
Wind_Direction
359 354 357 1 357 359 358 351 347 346 349 351 347 343 340 338 337 337 340 338 334 332 333 340 341 343 339 336 338 327 326 334 349 32 49 21 345 333 1 347 339 333 327 334 348 355 351 348 359 356 299 193 330 146 129 255 188 196 209 215 226 223 222 215 211 210 211 209 166 153 189 190 147 126 138 117 93 103 106 85 73 70 73 110 118 133 145 152
358 357 360 0 359 358 352 350 350 354 356 351 347 348 344 338 333 331 332 334 333 333 332 336 341 342 336 337 336 323 329 336 4 57 36 16 3 6 3 336 322 318 328 337 349 359 347 346 354 345 326 178 348 173 192 194 191 209 208 218 229 225 220 209 217 212 221 231 162 139 193 186 146 130 158 152 127 127 107 84 98 104 101 100 99 111 135 148
357 358 359 359 356 349 348 353 352 358 357 349 350 350 345 340 337 334 331 330 331 336 336 335 340 339 336 336 331 327 334 335 129 67 19 16 10 17 16 349 328 316 322 329 339 355 344 348 346 331 299 188 36 208 198 171 194 219 216 226 230 226 211 156 245 267 294 255 168 139 141 108 93 78 191 147 124 108 86 51 77 97 65 30 33 52 77 105
356 355 356 354 349 346 349 353 355 1 356 350 352 349 353 355 350 344 336 331 326 334 339 335 337 339 336 331 331 337 333 293 146 45 13 15 8 18 19 353 337 322 311 314 328 355 349 358 355 350 275 206 70 255 201 175 195 209 215 229 219 223 221 157 15 338 331 269 200 154 138 111 91 38 31 151 133 98 68 19 12 1 357 352 7 36 44 69
356 355 355 350 347 349 351 351 358 2 356 355 353 353 1 1 357 352 345 340 328 331 337 335 337 337 333 328 335 340 307 251 114 41 20 19 11 22 20 10 4 343 322 307 332 2 351 355 354 10 316 213 156 210 197 183 242 229 224 237 277 288 221 139 24 8 352 284 214 173 151 126 108 49 22 87 125 95 38 5 10 358 358 350 354 40 45 55
356 355 354 352 347 348 350 351 358 359 357 359 353 353 358 354 354 353 350 348 332 332 338 335 335 332 328 330 337 339 304 262 91 32 18 25 18 25 22 20 25 21 24 325 329 341 335 343 324 344 356 219 192 219 188 174 267 249 230 234 252 264 244 275 6 10 355 306 225 181 136 113 114 81 41 49 60 60 40 20 20 20 21 2 9 54 55 53
357 354 352 353 346 343 345 349 356 353 349 354 351 347 350 351 350 348 347 346 334 335 339 336 335 324 326 338 344 347 357 56 98 28 20 26 13 27 30 26 34 35 46 26 353 346 349 345 320 211 204 234 218 235 188 189 257 251 240 228 238 250 261 282 323 340 340 329 264 133 107 105 116 105 67 57 52 42 47 42 32 38 33 15 29 53 57 58
355 353 352 352 347 342 341 346 349 343 339 347 351 343 342 347 344 342 344 342 337 334 333 337 334 317 328 357 357 335 44 48 52 7 17 20 13 27 27 32 41 45 58 43 13 344 340 336 347 240 234 312 203 216 322 244 231 238 249 270 273 255 267 298 311 310 318 314 132 103 91 83 93 95 74 56 50 45 52 49 41 47 39 21 27 39 53 58
354 352 350 349 348 341 338 343 340 334 337 341 348 342 336 337 337 335 333 334 335 330 325 332 326 316 340 11 348 316 64 29 343 337 1 10 21 26 28 43 40 44 56 40 20 347 330 331 17 304 274 11 179 212 304 235 221 237 262 292 292 271 283 300 294 287 284 198 128 105 100 91 93 91 67 53 55 60 59 51 45 49 44 33 23 20 43 53
352 352 348 344 345 341 337 341 337 327 332 336 339 336 331 331 331 326 318 320 327 325 321 327 317 318 353 9 329 328 88 23 347 329 346 1 20 22 28 38 32 37 47 31 26 20 13 37 20 337 295 345 212 237 286 243 309 350 289 291 280 275 281 281 272 271 263 197 150 119 115 82 56 91 78 58 52 63 69 56 48 53 50 43 28 18 39 47
349 349 347 342 341 342 338 341 337 326 329 334 333 330 329 327 325 319 308 309 324 329 320 309 301 310 18 15 321 1 68 333 325 321 333 348 3 8 15 19 15 29 40 30 39 33 20 19 1 291 268 297 222 240 263 278 332 335 287 283 265 261 256 249 255 252 238 203 166 127 114 62 31 64 83 72 63 66 78 65 54 56 51 45 37 31 38 41
344 341 343 342 339 341 339 338 338 331 330 332 332 331 328 325 324 316 301 303 320 329 328 303 294 314 36 267 258 266 309 312 315 322 325 326 334 348 0 3 0 10 31 41 63 39 9 4 306 282 296 301 247 232 271 323 311 293 281 281 254 250 244 236 238 233 228 202 163 138 127 72 35 59 72 90 97 81 85 76 62 59 49 43 40 38 39 37
340 336 337 338 338 338 334 330 335 336 331 331 332 329 326 326 322 310 297 296 302 310 313 298 299 327 305 275 255 292 317 323 336 358 328 293 301 340 354 6 10 17 63 90 104 77 7 348 293 296 339 306 267 267 334 323 282 265 251 258 248 256 247 223 221 223 223 198 172 176 197 166 73 54 59 87 109 98 88 80 71 66 55 44 40 43 40 35
337 334 331 333 337 335 329 324 332 335 329 331 331 328 332 332 322 305 278 281 287 295 292 275 283 30 287 286 301 312 328 2 32 45 44 79 173 97 58 59 38 37 81 109 128 134 106 345 268 247 355 298 298 309 307 280 256 264 234 231 234 245 243 198 200 211 211 195 182 210 227 175 110 51 40 73 113 113 96 90 82 70 65 59 48 47 49 41
334 332 330 331 333 332 328 325 331 329 324 330 331 332 341 344 341 332 254 301 217 242 312 282 190 2 291 286 300 305 339 55 56 65 57 54 129 140 92 85 65 67 93 123 135 128 110 333 236 236 219 255 292 278 261 242 231 261 232 221 217 225 244 172 193 205 205 136 40 223 212 145 103 59 47 86 116 113 109 104 93 76 70 75 62 47 51 48
330 329 329 329 329 329 327 324 326 325 325 333 332 336 345 351 359 38 129 86 170 219 317 293 179 296 296 311 6 294 118 51 35 60 40 30 35 113 98 103 85 81 104 132 142 128 95 104 178 309 282 226 257 241 234 242 222 230 237 232 219 216 226 197 187 202 208 179 31 344 172 119 101 87 66 94 124 113 112 109 98 88 72 73 77 54 42 47
329 328 327 326 326 324 323 323 325 328 334 336 331 334 340 333 348 358 173 153 210 233 291 29 128 267 281 215 217 210 129 343 349 336 311 328 328 142 114 116 92 93 109 122 158 172 176 149 171 212 228 230 238 229 220 229 224 211 219 235 247 235 234 220 154 94 193 145 49 41 102 107 105 107 85 92 125 117 116 116 101 94 84 81 86 70 47 39
329 326 324 322 321 320 322 323 326 338 340 334 331 328 301 289 312 310 221 204 266 218 201 127 147 253 263 203 256 259 311 305 307 304 296 295 268 216 190 149 116 124 131 136 183 192 195 183 236 222 206 214 213 216 218 229 266 231 217 230 242 247 242 233 181 105 68 85 93 92 108 117 110 108 97 91 117 122 120 118 106 107 108 100 92 85 72 47
327 325 323 319 317 316 319 321 326 337 334 329 333 319 283 277 269 247 207 165 223 238 234 157 194 305 328 250 283 304 298 296 296 290 268 248 218 193 182 142 125 165 189 194 175 169 213 184 197 225 221 212 200 212 230 339 9 302 265 251 243 240 234 239 84 113 104 88 75 86 122 131 117 100 104 105 109 117 120 119 116 115 112 107 103 97 86 65
325 324 321 316 317 314 314 317 322 329 327 334 346 324 281 289 269 220 189 214 232 268 307 219 212 280 299 285 304 311 306 286 274 263 195 182 166 159 160 147 148 201 215 223 190 134 281 226 224 231 211 183 199 223 251 326 0 315 288 263 256 248 236 56 80 122 113 94 59 71 109 114 100 79 88 114 114 116 124 127 124 123 116 111 110 100 90 81
327 324 318 315 314 311 312 313 318 324 321 334 349 325 289 328 314 338 329 244 234 257 276 255 238 268 276 287 302 314 321 265 234 215 195 181 166 176 183 178 196 213 209 196 164 115 259 238 238 237 131 114 207 228 248 269 269 272 267 257 257 245 253 46 129 161 71 99 106 108 100 76 67 68 62 95 111 114 129 136 137 137 130 118 113 107 103 101
327 323 316 314 309 308 313 311 315 322 317 329 345 178 154 324 302 321 320 273 247 226 251 257 251 265 266 272 279 269 250 264 246 206 186 166 178 206 183 183 215 216 186 174 186 209 229 240 246 190 157 195 212 214 220 238 242 247 250 248 252 238 247 355 146 38 353 100 140 143 121 75 58 66 57 61 79 82 97 132 148 153 148 139 130 121 121 122
326 323 317 312 306 306 309 311 318 321 320 317 238 155 143 178 273 304 300 286 283 208 215 228 231 251 252 257 225 191 235 294 277 213 174 170 180 204 180 195 221 214 196 204 216 230 229 246 256 198 185 198 205 204 206 218 228 232 236 237 244 231 225 237 174 49 4 83 150 146 123 90 107 84 63 61 77 87 87 113 141 163 159 147 142 134 132 133
326 323 316 310 305 298 296 317 323 248 295 310 200 166 154 136 145 300 285 283 289 252 222 223 238 247 230 161 160 197 274 288 243 251 170 181 172 156 203 211 214 212 215 219 224 239 245 319 26 191 198 212 217 205 203 217 222 221 226 232 238 225 218 232 130 96 36 68 143 136 113 177 182 187 168 109 110 120 120 131 141 157 157 146 147 143 139 140
326 322 315 311 302 285 280 312 252 218 298 309 180 177 162 109 98 242 281 288 263 234 227 213 226 216 175 152 158 222 299 260 231 234 170 191 179 148 195 202 208 220 223 224 228 246 252 248 92 147 186 209 221 219 213 218 224 224 223 225 233 228 182 116 131 141 81 144 172 158 176 208 174 200 200 161 166 173 156 168 165 159 160 155 154 151 148 142
326 322 313 307 295 277 280 268 199 218 308 168 178 181 165 80 66 179 250 282 178 123 82 201 210 202 172 176 176 246 278 255 247 197 183 206 188 152 181 166 200 238 219 219 230 250 253 238 225 228 228 217 224 234 224 216 228 240 214 207 218 227 187 154 160 173 173 210 205 205 214 198 172 205 200 172 182 202 194 199 196 185 183 179 168 158 153 146
324 320 312 307 296 272 263 244 201 234 281 159 168 175 182 312 216 187 227 262 65 35 290 345 225 219 225 209 232 274 280 322 312 202 197 213 189 154 216 182 176 210 173 173 231 220 215 221 222 227 234 230 231 239 224 213 225 244 175 192 204 210 199 180 176 195 239 221 179 205 229 229 208 190 176 170 179 208 218 213 204 200 199 194 186 172 161 159
323 318 308 303 296 257 257 257 210 217 197 162 162 178 207 259 199 206 231 36 10 337 276 312 186 159 250 237 244 285 302 325 306 239 104 211 188 130 230 202 193 182 166 180 221 185 176 207 212 218 226 230 234 234 204 203 222 247 352 250 218 212 201 186 186 210 238 225 181 202 221 223 206 138 145 169 187 217 221 213 205 199 197 194 191 185 175 168
322 314 294 276 290 286 278 254 208 188 165 163 163 182 177 144 187 215 174 332 275 70 81 199 164 100 348 319 268 288 302 307 302 1 10 220 197 176 232 215 193 172 177 206 234 332 197 235 223 219 226 232 236 220 184 195 217 246 6 327 269 232 204 189 201 216 229 233 204 193 200 208 200 156 158 178 208 220 212 205 202 196 193 193 189 185 179 169
319 307 281 263 311 310 290 221 210 180 162 170 181 167 146 147 201 238 51 339 325 55 79 157 169 341 356 356 331 278 270 262 288 339 8 203 201 197 261 275 173 173 192 223 243 252 35 314 266 227 234 242 241 213 190 206 221 257 351 284 260 228 204 199 215 215 232 240 204 184 196 224 219 184 180 191 205 194 180 179 191 191 190 191 188 184 180 172
314 290 251 245 293 286 265 288 227 173 168 183 179 153 154 180 227 45 50 19 327 333 336 63 353 346 1 360 320 305 313 259 273 294 250 144 169 182 185 100 139 190 205 217 232 237 235 234 214 226 234 231 232 217 208 220 226 242 257 224 216 204 189 207 219 206 230 243 198 176 184 220 226 197 196 205 191 166 174 183 186 184 182 182 182 181 178 174
310 252 214 218 284 268 255 292 217 168 175 182 165 156 186 233 56 81 319 332 334 349 357 313 324 343 342 334 289 302 312 299 321 295 254 217 168 169 199 204 178 207 223 206 212 238 238 230 190 215 221 206 213 211 199 220 222 221 235 227 208 182 170 208 216 212 226 255 199 169 172 207 224 237 204 202 192 180 188 190 180 174 172 172 174 176 173 170
133 122 206 243 304 274 239 249 180 168 172 169 180 213 196 50 52 157 270 321 1 17 345 279 299 314 310 307 314 312 290 301 340 311 246 222 185 165 177 253 215 249 300 210 207 253 225 171 132 170 202 196 209 206 182 200 204 202 222 227 205 180 178 206 208 215 219 264 318 170 170 202 209 156 194 192 188 186 185 176 167 166 165 166 171 174 170 168
136 110 113 281 327 259 228 203 169 169 172 174 220 267 75 42 345 147 257 276 287 308 290 291 308 304 293 305 326 335 290 199 348 321 294 114 167 160 117 29 262 280 316 221 212 235 237 132 154 188 175 173 203 221 211 181 193 200 217 235 234 217 197 212 207 206 182 132 142 168 172 201 191 161 354 213 181 161 155 152 154 158 162 163 166 172 172 172
142 110 74 65 58 61 192 177 162 163 177 203 262 292 71 38 245 195 265 252 256 305 286 258 310 309 18 46 318 13 308 251 5 340 340 35 34 3 343 320 352 301 240 241 156 183 251 292 170 201 40 170 197 217 221 199 194 188 182 231 243 228 216 270 245 226 171 135 143 170 184 246 114 130 81 132 165 147 141 143 150 159 165 165 169 175 178 178
154 126 78 60 56 76 138 158 158 158 178 258 292 318 70 276 234 170 168 248 272 313 298 290 53 342 351 338 333 24 222 217 319 326 1 66 67 25 347 292 338 352 284 278 222 186 263 326 137 167 222 205 208 208 194 207 203 160 176 207 185 105 113 274 258 263 263 159 117 179 214 124 132 147 124 146 159 152 155 162 165 168 168 170 176 178 179 180
163 153 94 60 51 97 135 152 157 152 171 275 304 16 36 283 254 186 154 1 75 303 310 333 38 0 346 308 306 334 300 234 333 336 346 141 126 65 342 281 255 201 73 357 272 249 314 13 109 186 210 216 229 178 163 225 307 188 209 212 118 104 133 259 261 1 313 79 71 350 264 192 190 182 137 162 171 169 172 172 172 173 174 179 181 177 178 181
165 158 114 57 39 137 149 155 150 143 154 342 351 339 279 250 284 260 229 7 183 235 300 344 1 350 7 260 292 332 325 338 359 351 329 307 323 145 249 292 207 178 125 112 252 292 280 96 98 219 214 120 97 162 194 206 216 231 267 314 253 215 212 209 228 229 142 27 53 75 340 269 223 199 165 184 189 182 177 173 176 180 181 183 179 175 179 182
163 163 113 36 37 156 156 155 140 133 265 40 36 271 313 295 282 283 282 267 222 237 249 199 306 292 187 256 295 330 334 356 354 342 347 342 330 162 186 289 236 198 157 160 194 306 303 276 95 212 203 116 131 209 219 190 187 210 270 303 188 280 267 212 262 263 172 143 150 108 1 252 228 204 187 193 189 179 175 179 184 184 182 181 176 176 181 183
166 185 122 28 134 155 149 147 133 97 59 89 213 205 22 303 281 284 278 268 243 251 270 211 209 239 229 251 267 298 333 344 327 321 351 344 324 160 159 279 269 222 162 177 207 268 311 288 134 122 157 172 182 209 228 212 196 204 216 205 180 228 257 225 294 304 225 181 165 132 206 237 234 132 195 194 186 181 180 181 182 180 179 179 177 179 182 183
193 205 112 27 154 153 143 121 75 34 116 122 173 154 35 273 287 306 276 266 265 297 323 263 230 249 254 251 227 221 302 291 252 261 284 347 351 29 97 283 281 257 160 172 196 194 253 303 133 144 180 204 196 161 289 274 281 273 247 229 216 222 241 212 184 178 339 271 173 149 207 231 42 24 333 198 184 186 183 176 170 173 176 175 177 181 181 181
238 225 45 63 165 159 153 96 59 42 152 110 152 173 242 252 281 331 305 262 270 279 316 281 263 255 238 242 253 248 295 281 258 271 213 220 320 300 215 292 280 263 231 232 173 160 223 255 144 164 204 228 211 118 222 249 270 285 277 263 244 231 263 259 194 110 298 251 217 241 246 76 80 74 335 343 207 184 178 174 167 169 173 169 172 179 180 181
282 161 49 155 172 170 200 285 127 294 179 29 262 193 197 219 200 286 258 247 265 275 277 250 244 250 241 240 231 212 237 259 251 296 271 241 267 200 119 15 287 254 261 276 124 133 202 215 160 179 217 229 199 157 183 228 237 249 244 196 242 245 275 298 345 339 246 209 197 232 215 78 83 93 355 306 249 181 172 171 163 161 165 165 169 177 180 182
35 147 40 97 181 190 268 218 179 301 184 323 312 170 171 205 200 195 220 239 249 268 276 259 259 285 270 263 256 241 264 273 225 260 294 271 271 116 101 32 324 287 294 334 355 343 251 209 190 205 196 185 181 173 184 203 215 238 233 169 216 199 185 205 172 211 233 192 336 263 189 93 84 47 33 139 194 178 170 169 164 160 165 167 168 176 183 183
82 165 54 67 175 196 302 230 182 131 143 273 307 165 168 190 190 186 199 206 216 274 292 299 325 315 277 255 319 295 277 264 225 184 252 266 271 128 107 19 346 316 306 314 321 313 294 251 231 247 234 166 179 296 87 188 230 241 222 205 195 176 197 222 347 280 262 101 171 261 264 79 92 65 37 137 168 174 169 170 171 166 167 170 171 178 184 185
173 294 276 66 96 109 37 8 97 119 143 179 203 175 172 175 156 129 175 195 162 156 284 309 334 312 242 215 282 286 263 255 247 275 266 267 269 179 171 303 148 311 310 312 333 340 274 259 255 251 269 297 335 5 39 320 261 219 216 221 194 168 206 236 261 274 231 138 199 242 288 325 320 179 189 188 179 176 171 170 172 171 169 171 174 179 183 183
158 122 274 128 38 68 54 28 138 118 146 210 206 168 177 194 165 128 172 192 131 138 251 291 276 270 250 233 255 258 262 262 246 247 246 251 273 271 269 225 181 327 327 322 89 13 259 250 81 199 270 299 321 330 340 296 262 244 276 238 196 184 173 200 232 253 112 167 236 212 186 279 306 206 188 193 185 181 181 178 177 174 172 172 171 174 179 182
176 150 109 86 230 237 351 312 168 114 124 222 234 178 182 187 183 183 172 144 129 168 203 222 224 248 263 269 273 260 245 263 251 242 231 237 269 293 319 165 176 348 355 53 98 3 279 282 32 355 296 282 258 310 317 286 283 284 280 264 228 198 193 208 230 217 190 234 286 107 174 232 273 251 194 191 189 187 184 181 177 173 170 171 172 174 179 183
94 144 99 57 299 239 13 10 132 125 154 190 217 206 201 194 193 197 141 140 168 183 190 227 234 228 240 252 267 274 258 272 283 271 233 232 269 286 10 122 174 11 18 50 62 41 248 276 52 285 291 261 221 235 213 246 285 279 272 265 252 232 219 230 252 228 219 261 287 110 231 260 261 239 209 181 179 177 171 171 174 175 175 175 178 182 185 188
165 179 152 97 83 99 32 11 160 159 174 193 232 210 196 201 198 178 165 187 187 162 178 218 218 189 220 234 232 263 279 294 315 315 228 230 286 277 271 263 234 4 20 52 58 345 292 349 74 319 285 267 245 249 223 244 278 273 271 252 230 247 255 249 254 236 239 261 258 189 275 274 263 183 94 125 150 156 164 174 179 181 181 180 184 190 193 193
165 132 139 137 148 159 134 56 206 250 223 195 207 187 189 217 205 175 188 212 217 174 181 198 174 155 182 235 237 261 277 274 299 333 216 244 319 340 332 320 268 317 8 63 65 335 331 105 78 1 289 282 9 359 326 323 304 277 275 252 215 207 232 241 227 203 213 218 162 164 254 263 164 90 94 130 155 168 177 183 185 188 187 187 191 195 196 197
158 118 137 158 218 175 162 119 178 256 260 209 191 175 180 202 181 175 197 199 208 230 203 176 157 150 183 228 239 266 303 293 303 345 354 286 322 328 324 335 298 301 338 65 123 19 97 149 112 63 272 291 0 354 334 326 304 275 276 262 225 205 208 228 239 225 220 199 154 198 233 219 118 139 145 151 172 189 195 192 189 191 192 195 200 201 201 202